Location: Newark
(32.8369°N, 35.2736°E)
Time: 02:21:20
(UTC+00:00)

Hubble Space Telescope - Visible Passes

Search period start: 19 November 2019 00:00
Search period end: 29 November 2019 00:00
Orbit: 536 x 540 km, 28.5° (Epoch: 17 November)

Date Brightness Start Highest point End Pass type
(mag) Time Alt. Az. Time Alt. Az. Time Alt. Az.
19 Nov 1.9 16:30:08 10° SW 16:33:21 34° S 16:33:21 34° S visible
20 Nov 1.6 16:19:26 10° WSW 16:23:17 39° S 16:23:22 39° SSE visible
21 Nov 1.5 16:08:45 10° WSW 16:12:40 42° S 16:13:24 38° SE visible
22 Nov 1.5 15:58:06 10° WSW 16:02:02 44° S 16:03:25 32° SE visible
23 Nov 1.5 15:47:28 10° WSW 15:51:25 45° S 15:53:28 24° ESE visible
23 Nov 4.0 17:28:35 10° WSW 17:28:49 11° WSW 17:28:49 11° WSW visible
24 Nov 1.5 15:36:51 10° WSW 15:40:48 45° S 15:43:34 18° ESE visible
24 Nov 3.7 17:18:04 10° WSW 17:18:54 15° WSW 17:18:54 15° WSW visible
25 Nov 1.6 15:26:15 10° WSW 15:30:11 44° S 15:33:43 12° ESE visible
25 Nov 3.4 17:07:35 10° WSW 17:09:04 18° WSW 17:09:04 18° WSW visible
26 Nov 1.8 15:15:40 10° WSW 15:19:33 42° S 15:23:27 10° ESE visible
26 Nov 3.1 16:57:09 10° WSW 16:59:18 20° SW 16:59:18 20° SW visible
27 Nov 2.0 15:05:05 10° WSW 15:08:56 38° S 15:12:46 10° ESE visible
27 Nov 3.0 16:46:49 10° WSW 16:49:38 18° SSW 16:49:38 18° SSW visible
28 Nov 2.2 14:54:31 10° WSW 14:58:17 35° SSW 15:02:03 10° SE visible
28 Nov 3.2 16:36:37 10° WSW 16:39:00 15° SSW 16:40:06 14° S visible
